timestamp,wind_dir_avg,wind_spd_avg,wind_spd_max_dir,wind_spd_gust,battery_voltage,lat,long
2024-01-27 00:04:00+00:00,244.0,3.97,250.0,6.21,12.25,47.59359,-54.27349
2024-01-27 00:14:00+00:00,240.0,3.41,250.0,6.95,12.25,47.59359,-54.27349
2024-01-27 00:24:00+00:00,240.0,3.57,261.0,5.33,12.25,47.59359,-54.27349
2024-01-27 00:34:00+00:00,231.0,3.87,240.0,5.41,12.25,47.59359,-54.27349
2024-01-27 00:44:00+00:00,221.0,3.76,239.0,5.61,12.25,47.59359,-54.27349
2024-01-27 00:54:00+00:00,229.0,4.61,246.0,6.38,12.25,47.59359,-54.27349
2024-01-27 01:04:00+00:00,223.0,4.67,229.0,5.98,12.25,47.59359,-54.27349
2024-01-27 01:14:00+00:00,223.0,5.07,225.0,6.24,12.17,47.59359,-54.27349
2024-01-27 01:24:00+00:00,236.0,3.61,241.0,5.38,12.17,47.59359,-54.27349
2024-01-27 01:34:00+00:00,246.0,3.4,247.0,5.23,12.17,47.59359,-54.27349
2024-01-27 01:44:00+00:00,261.0,4.29,271.0,6.45,12.17,47.59359,-54.27349
2024-01-27 01:54:00+00:00,265.0,4.09,259.0,4.99,12.17,47.59359,-54.27349
2024-01-27 02:04:00+00:00,255.0,3.8,264.0,5.17,12.17,47.59359,-54.27349
2024-01-27 02:14:00+00:00,256.0,4.17,266.0,5.02,12.17,47.59359,-54.27349
2024-01-27 02:24:00+00:00,236.0,2.72,250.0,5.09,12.17,47.59359,-54.27349
2024-01-27 02:34:00+00:00,250.0,2.82,260.0,5.01,12.17,47.59359,-54.27349
2024-01-27 02:44:00+00:00,250.0,4.22,252.0,5.22,12.17,47.59359,-54.27349
2024-01-27 02:54:00+00:00,269.0,3.73,269.0,5.03,12.17,47.59359,-54.27349
2024-01-27 03:04:00+00:00,228.0,3.0,253.0,5.21,12.17,47.59359,-54.27349
2024-01-27 03:14:00+00:00,244.0,3.63,258.0,5.41,12.17,47.59359,-54.27349
2024-01-27 03:24:00+00:00,249.0,3.13,259.0,4.98,12.17,47.59359,-54.27349
2024-01-27 03:34:00+00:00,275.0,4.09,279.0,5.07,12.17,47.59359,-54.27349
2024-01-27 03:44:00+00:00,270.0,3.35,266.0,7.56,12.17,47.59359,-54.27349
2024-01-27 03:54:00+00:00,265.0,2.79,270.0,5.03,12.17,47.59359,-54.27349
2024-01-27 04:04:00+00:00,292.0,4.18,287.0,6.16,12.17,47.59359,-54.27349
2024-01-27 04:14:00+00:00,291.0,6.17,289.0,7.06,12.17,47.59359,-54.27349
2024-01-27 04:24:00+00:00,297.0,5.07,298.0,6.19,12.17,47.59359,-54.27349
2024-01-27 04:34:00+00:00,292.0,6.36,293.0,7.32,12.17,47.59359,-54.27349
2024-01-27 04:44:00+00:00,292.0,4.65,288.0,6.78,12.17,47.59359,-54.27349
2024-01-27 04:54:00+00:00,286.0,6.39,288.0,7.06,12.17,47.59359,-54.27349
2024-01-27 05:04:00+00:00,290.0,5.64,290.0,7.12,12.17,47.59359,-54.27349
2024-01-27 05:14:00+00:00,301.0,5.19,307.0,6.18,12.17,47.59359,-54.27349
2024-01-27 05:24:00+00:00,299.0,4.54,304.0,6.73,12.17,47.59359,-54.27349
2024-01-27 05:34:00+00:00,271.0,4.74,273.0,6.62,12.17,47.59359,-54.27349
2024-01-27 05:44:00+00:00,300.0,4.01,287.0,6.19,12.17,47.59359,-54.27349
2024-01-27 05:54:00+00:00,284.0,5.36,286.0,6.44,12.17,47.59359,-54.27349
2024-01-27 06:04:00+00:00,277.0,5.18,280.0,6.71,12.17,47.59359,-54.27349
2024-01-27 06:14:00+00:00,291.0,4.89,287.0,6.53,12.09,47.59359,-54.27349
2024-01-27 06:24:00+00:00,282.0,4.37,290.0,5.36,12.09,47.59359,-54.27349
2024-01-27 06:34:00+00:00,277.0,4.37,277.0,6.45,12.09,47.59359,-54.27349
2024-01-27 06:44:00+00:00,282.0,5.8,281.0,6.68,12.09,47.59359,-54.27349
2024-01-27 06:54:00+00:00,289.0,6.46,295.0,7.03,12.09,47.59359,-54.27349
2024-01-27 07:04:00+00:00,290.0,5.32,288.0,6.86,12.09,47.59359,-54.27349
2024-01-27 07:14:00+00:00,293.0,6.38,291.0,7.07,12.09,47.59359,-54.27349
2024-01-27 07:24:00+00:00,283.0,5.98,283.0,6.7,12.09,47.59359,-54.27349
2024-01-27 07:34:00+00:00,288.0,4.52,280.0,6.55,12.09,47.59359,-54.27349
2024-01-27 07:44:00+00:00,277.0,5.35,279.0,6.29,12.09,47.59359,-54.27349
2024-01-27 07:54:00+00:00,282.0,5.7,285.0,6.49,12.09,47.59359,-54.27349
2024-01-27 08:04:00+00:00,306.0,5.06,302.0,6.42,12.09,47.59359,-54.27349
2024-01-27 08:14:00+00:00,293.0,5.96,296.0,7.11,12.09,47.59359,-54.27349
2024-01-27 08:24:00+00:00,293.0,5.97,289.0,6.7,12.09,47.59359,-54.27349
2024-01-27 08:34:00+00:00,296.0,6.48,295.0,7.27,12.09,47.59359,-54.27349
2024-01-27 08:44:00+00:00,298.0,6.24,304.0,7.06,12.09,47.59359,-54.27349
2024-01-27 08:54:00+00:00,298.0,5.24,298.0,6.33,12.09,47.59359,-54.27349
2024-01-27 09:04:00+00:00,301.0,5.56,305.0,6.66,12.09,47.59359,-54.27349
2024-01-27 09:14:00+00:00,295.0,5.38,289.0,6.45,12.09,47.59359,-54.27349
2024-01-27 09:24:00+00:00,340.0,2.62,293.0,5.09,12.09,47.59359,-54.27349
2024-01-27 09:34:00+00:00,353.0,2.38,357.0,2.88,12.09,47.59359,-54.27349
2024-01-27 09:44:00+00:00,3.0,1.83,2.0,2.36,12.09,47.59359,-54.27349
2024-01-27 09:54:00+00:00,8.0,2.29,12.0,3.03,12.09,47.59359,-54.27349
2024-01-27 10:04:00+00:00,331.0,3.53,302.0,6.35,12.09,47.59359,-54.27349
2024-01-27 10:14:00+00:00,332.0,3.28,303.0,5.45,12.01,47.59359,-54.27349
2024-01-27 10:24:00+00:00,355.0,2.46,352.0,3.31,12.01,47.59359,-54.27349
2024-01-27 10:34:00+00:00,344.0,2.37,349.0,3.06,12.01,47.59359,-54.27349
2024-01-27 10:44:00+00:00,12.0,1.91,11.0,2.28,12.01,47.59359,-54.27349
2024-01-27 10:54:00+00:00,326.0,1.27,278.0,4.39,12.01,47.59359,-54.27349
2024-01-27 11:04:00+00:00,345.0,1.56,330.0,2.06,12.01,47.59359,-54.27349
2024-01-27 11:14:00+00:00,343.0,2.79,295.0,5.58,12.01,47.59359,-54.27349
2024-01-27 11:24:00+00:00,353.0,1.56,339.0,2.83,12.01,47.59359,-54.27349
2024-01-27 11:34:00+00:00,357.0,3.75,358.0,4.15,12.01,47.59359,-54.27349
2024-01-27 11:44:00+00:00,320.0,3.55,298.0,6.24,12.01,47.59359,-54.27349
2024-01-27 11:54:00+00:00,298.0,3.4,290.0,6.27,12.01,47.59359,-54.27349
2024-01-27 12:04:00+00:00,339.0,2.03,351.0,2.65,12.01,47.59359,-54.27349
2024-01-27 12:14:00+00:00,342.0,2.01,343.0,2.63,14.32,47.59359,-54.27349
2024-01-27 12:24:00+00:00,351.0,1.77,355.0,2.67,14.32,47.59359,-54.27349
2024-01-27 12:34:00+00:00,355.0,2.81,358.0,3.63,14.32,47.59359,-54.27349
2024-01-27 12:44:00+00:00,346.0,2.69,339.0,3.24,14.32,47.59359,-54.27349
2024-01-27 12:54:00+00:00,1.0,2.93,2.0,3.72,14.32,47.59359,-54.27349
2024-01-27 13:04:00+00:00,331.0,1.42,332.0,1.71,14.32,47.59359,-54.27349
2024-01-27 13:14:00+00:00,4.0,1.32,7.0,1.7,14.0,47.59359,-54.27349
2024-01-27 13:24:00+00:00,359.0,0.84,357.0,1.16,14.0,47.59359,-54.27349
2024-01-27 13:34:00+00:00,26.0,0.74,30.0,1.22,14.0,47.59359,-54.27349
2024-01-27 13:44:00+00:00,30.0,1.07,13.0,1.57,14.0,47.59359,-54.27349
2024-01-27 13:54:00+00:00,342.0,0.26,354.0,0.5,14.0,47.59359,-54.27349
2024-01-27 14:04:00+00:00,5.0,0.84,6.0,1.02,14.0,47.59359,-54.27349
2024-01-27 14:14:00+00:00,301.0,0.42,299.0,0.76,14.56,47.59359,-54.27349
2024-01-27 14:24:00+00:00,335.0,0.97,332.0,1.26,14.56,47.59359,-54.27349
2024-01-27 14:34:00+00:00,16.0,1.64,12.0,2.29,14.56,47.59359,-54.27349
2024-01-27 14:44:00+00:00,30.0,1.55,32.0,1.9,14.56,47.59359,-54.27349
2024-01-27 14:54:00+00:00,55.0,0.84,31.0,1.54,14.56,47.59359,-54.27349
2024-01-27 15:04:00+00:00,30.0,1.6,17.0,1.96,14.56,47.59359,-54.27349
2024-01-27 15:14:00+00:00,57.0,1.45,57.0,2.05,13.76,47.59359,-54.27349
2024-01-27 15:24:00+00:00,52.0,1.68,70.0,2.94,13.76,47.59359,-54.27349
2024-01-27 15:34:00+00:00,42.0,1.09,39.0,1.44,13.76,47.59359,-54.27349
2024-01-27 15:44:00+00:00,31.0,1.21,29.0,1.63,13.76,47.59359,-54.27349
2024-01-27 15:54:00+00:00,331.0,0.85,327.0,1.33,13.76,47.59359,-54.27349
2024-01-27 16:04:00+00:00,339.0,0.83,343.0,1.07,13.76,47.59359,-54.27349
2024-01-27 16:14:00+00:00,326.0,0.98,327.0,1.13,13.92,47.59359,-54.27349
2024-01-27 16:24:00+00:00,282.0,0.69,281.0,1.02,13.92,47.59359,-54.27349
2024-01-27 16:34:00+00:00,317.0,0.48,338.0,0.8,13.92,47.59359,-54.27349
2024-01-27 16:44:00+00:00,242.0,1.23,262.0,4.53,13.92,47.59359,-54.27349
2024-01-27 16:54:00+00:00,255.0,4.23,262.0,6.06,13.92,47.59359,-54.27349
2024-01-27 17:04:00+00:00,234.0,3.81,248.0,5.95,13.92,47.59359,-54.27349
2024-01-27 17:14:00+00:00,244.0,4.15,254.0,6.06,13.6,47.59359,-54.27349
2024-01-27 17:24:00+00:00,261.0,5.03,262.0,5.8,13.6,47.59359,-54.27349
2024-01-27 17:34:00+00:00,249.0,5.37,250.0,6.45,13.6,47.59359,-54.27349
2024-01-27 17:44:00+00:00,225.0,2.28,251.0,5.61,13.6,47.59359,-54.27349
2024-01-27 17:54:00+00:00,241.0,2.68,253.0,4.41,13.6,47.59359,-54.27349
2024-01-27 18:04:00+00:00,233.0,1.93,252.0,3.82,13.6,47.59359,-54.27349
2024-01-27 18:14:00+00:00,202.0,1.58,244.0,3.46,13.68,47.59359,-54.27349
2024-01-27 18:24:00+00:00,240.0,2.89,254.0,5.14,13.68,47.59359,-54.27349
2024-01-27 18:34:00+00:00,253.0,1.5,262.0,3.48,13.68,47.59359,-54.27349
2024-01-27 18:44:00+00:00,197.0,1.58,195.0,1.88,13.68,47.59359,-54.27349
2024-01-27 18:54:00+00:00,194.0,2.14,188.0,2.63,13.68,47.59359,-54.27349
2024-01-27 19:04:00+00:00,200.0,1.3,199.0,2.06,13.68,47.59359,-54.27349
2024-01-27 19:14:00+00:00,290.0,0.37,257.0,0.82,14.24,47.59359,-54.27349
2024-01-27 19:24:00+00:00,326.0,0.89,335.0,1.2,14.24,47.59359,-54.27349
2024-01-27 19:34:00+00:00,315.0,0.63,326.0,1.08,14.24,47.59359,-54.27349
2024-01-27 19:44:00+00:00,28.0,1.01,31.0,1.56,14.24,47.59359,-54.27349
2024-01-27 19:54:00+00:00,191.0,1.1,187.0,1.46,14.24,47.59359,-54.27349
2024-01-27 20:04:00+00:00,190.0,2.1,189.0,2.44,14.24,47.59359,-54.27349
2024-01-27 20:14:00+00:00,196.0,1.9,198.0,2.38,13.13,47.59359,-54.27349
2024-01-27 20:24:00+00:00,233.0,2.36,236.0,2.82,13.13,47.59359,-54.27349
2024-01-27 20:34:00+00:00,226.0,2.49,229.0,3.13,13.13,47.59359,-54.27349
2024-01-27 20:44:00+00:00,211.0,3.09,202.0,3.72,13.13,47.59359,-54.27349
2024-01-27 20:54:00+00:00,218.0,3.15,217.0,3.65,13.13,47.59359,-54.27349
2024-01-27 21:04:00+00:00,224.0,3.0,221.0,3.5,13.13,47.59359,-54.27349
2024-01-27 21:14:00+00:00,222.0,2.32,221.0,3.08,12.41,47.59359,-54.27349
2024-01-27 21:24:00+00:00,222.0,2.88,220.0,3.58,12.41,47.59359,-54.27349
2024-01-27 21:34:00+00:00,238.0,1.57,253.0,2.13,12.41,47.59359,-54.27349
2024-01-27 21:44:00+00:00,315.0,4.41,308.0,6.15,12.41,47.59359,-54.27349
2024-01-27 21:54:00+00:00,314.0,4.33,304.0,6.23,12.41,47.59359,-54.27349
2024-01-27 22:04:00+00:00,321.0,4.53,314.0,5.63,12.41,47.59359,-54.27349
2024-01-27 22:14:00+00:00,306.0,4.8,299.0,6.44,12.33,47.59359,-54.27349
2024-01-27 22:24:00+00:00,307.0,4.23,295.0,5.53,12.33,47.59359,-54.27349
2024-01-27 22:34:00+00:00,298.0,3.92,291.0,4.87,12.33,47.59359,-54.27349
2024-01-27 22:44:00+00:00,286.0,4.51,284.0,5.92,12.33,47.59359,-54.27349
2024-01-27 22:54:00+00:00,280.0,2.86,277.0,4.31,12.33,47.59359,-54.27349
2024-01-27 23:04:00+00:00,268.0,2.57,267.0,2.95,12.33,47.59359,-54.27349
2024-01-27 23:14:00+00:00,278.0,2.65,273.0,3.02,12.25,47.59359,-54.27349
2024-01-27 23:24:00+00:00,262.0,3.04,262.0,3.49,12.25,47.59359,-54.27349
2024-01-27 23:34:00+00:00,251.0,3.63,254.0,4.19,12.25,47.59359,-54.27349
2024-01-27 23:44:00+00:00,251.0,3.33,248.0,3.76,12.25,47.59359,-54.27349
2024-01-27 23:54:00+00:00,251.0,3.62,249.0,4.22,12.25,47.59359,-54.27349
